Date String (YYYY-MM-DD hh:mm:ss) UTC,Instrument flags,absolute air pressure of the measurement (hPa),sample flow rate (lpm),inlet stack bypass flow (lpm),air temperature of the measurement (°C),ambient temperature measured by the external sensor (°C),aerosol sample conditioner tube jacket temperature (°C),OPC LED temperature (°C),internal box temperature (°C),relative humidity of the measurement (%),span deviation,mass concentration of particles derived from Lorenz-Mie calculation of OPC scattering (μg/m³),mass concentration of particles derived from Lorenz-Mie calculation of OPC scattering (μg/m³),mass concentration of particles derived from Lorenz-Mie calculation of OPC scattering (μg/m³)
DateTimeUTC,F1_M11,P_M11,Q1_M11,Q2_M11,T1_M11,T2_M11,T3_M11,T4_M11,T5_M11,U1_M11,ZSPAN_M11,X0_M11,X2_M11,X1_M11
2023-07-27 09:00:00,SystemResetWarning,0833.3,4.99,000.00,029.3,027.7,000.0,037.8,030.9,24.7,0000.0,0004.01,0002.27,0001.69
2023-07-27 09:01:00,SystemResetWarning,0833.2,5.01,000.00,029.3,027.8,000.0,037.8,030.9,24.0,0000.0,0004.07,0002.30,0001.69
2023-07-27 09:02:00,SystemResetWarning,0833.3,5.01,000.00,029.4,028.0,000.0,037.8,031.0,24.3,0000.0,0004.07,0002.32,0001.70
2023-07-27 09:03:00,SystemResetWarning,0833.2,5.01,000.00,029.4,028.1,000.0,037.8,031.0,23.8,0000.0,0003.86,0002.29,0001.70
2023-07-27 09:04:00,SystemResetWarning,0833.2,5.00,000.00,029.4,028.1,000.0,037.8,031.0,23.7,0000.0,0003.66,0002.24,0001.68
2023-07-27 09:05:00,SystemResetWarning,0833.2,5.00,000.00,029.5,028.2,000.0,037.9,031.1,23.7,0000.0,0003.64,0002.23,0001.67
2023-07-27 09:06:00,SystemResetWarning,0833.2,4.99,000.00,029.5,028.3,000.0,037.9,031.1,23.5,0000.0,0003.64,0002.24,0001.68
2023-07-27 09:07:00,SystemResetWarning,0833.1,4.99,000.00,029.5,028.3,000.0,037.9,031.1,23.7,0000.0,0003.35,0002.22,0001.67
2023-07-27 09:08:00,SystemResetWarning,0833.1,5.00,000.00,029.5,028.4,000.0,037.9,031.2,23.9,0000.0,0003.34,0002.24,0001.67
2023-07-27 09:09:00,SystemResetWarning,0833.2,5.02,000.00,029.6,028.4,000.0,037.9,031.2,24.2,0000.0,0003.11,0002.20,0001.68
2023-07-27 09:10:00,SystemResetWarning,0833.0,5.00,000.00,029.6,028.4,000.0,038.0,031.2,24.3,0000.0,0003.24,0002.24,0001.68
2023-07-27 09:11:00,SystemResetWarning,0833.3,4.99,000.00,029.6,028.5,000.0,038.0,031.2,24.3,0000.0,0003.31,0002.26,0001.70
2023-07-27 09:12:00,SystemResetWarning,0833.0,5.00,000.00,029.7,028.5,000.0,038.0,031.3,24.4,0000.0,0003.27,0002.25,0001.71
2023-07-27 09:13:00,SystemResetWarning,0833.1,4.99,000.00,029.7,028.4,000.0,038.0,031.3,24.7,0000.0,0003.22,0002.23,0001.71
2023-07-27 09:14:00,SystemResetWarning,0833.0,5.00,000.00,029.7,026.7,000.0,037.9,031.2,24.6,0000.0,0003.22,0002.24,0001.73
2023-07-27 09:15:00,SystemResetWarning,0833.2,5.00,000.00,029.6,025.4,000.0,037.8,030.9,24.7,0000.0,0003.37,0002.29,0001.75
2023-07-27 09:16:00,SystemResetWarning,0833.0,5.01,000.00,029.5,025.3,000.0,037.8,030.6,24.7,0000.0,0003.34,0002.29,0001.77
2023-07-27 09:17:00,SystemResetWarning,0833.0,5.00,000.00,029.4,025.6,000.0,037.8,030.6,24.7,0000.0,0003.43,0002.30,0001.77
2023-07-27 09:18:00,SystemResetWarning,0833.0,4.98,000.00,029.3,026.0,000.0,037.8,030.6,24.7,0000.0,0003.45,0002.29,0001.76
2023-07-27 09:19:00,SystemResetWarning,0833.0,5.00,000.00,029.3,026.4,000.0,037.8,030.7,24.2,0000.0,0003.38,0002.25,0001.74
2023-07-27 09:20:00,SystemResetWarning,0833.0,5.01,000.00,029.3,026.8,000.0,037.8,030.7,24.4,0000.0,0003.29,0002.20,0001.72
2023-07-27 09:21:00,SystemResetWarning,0832.9,5.00,000.00,029.3,027.1,000.0,037.8,030.8,24.2,0000.0,0003.18,0002.14,0001.70
2023-07-27 09:22:00,SystemResetWarning,0833.0,4.99,000.00,029.3,027.3,000.0,037.8,030.8,24.0,0000.0,0003.13,0002.12,0001.67
2023-07-27 09:23:00,SystemResetWarning,0832.9,5.00,000.00,029.3,027.5,000.0,037.8,030.9,23.9,0000.0,0003.31,0002.15,0001.65
2023-07-27 09:24:00,SystemResetWarning,0833.4,4.99,000.00,029.3,027.7,000.0,037.8,030.9,23.9,0000.0,0003.35,0002.15,0001.64
2023-07-27 09:25:00,SystemResetWarning,0833.2,5.00,000.00,029.4,027.8,000.0,037.8,030.9,24.1,0000.0,0003.33,0002.12,0001.63
2023-07-27 09:26:00,SystemResetWarning,0833.1,5.00,000.00,029.4,027.9,000.0,037.9,031.0,24.0,0000.0,0003.22,0002.09,0001.61
2023-07-27 09:27:00,SystemResetWarning,0833.0,5.01,000.00,029.4,028.0,000.0,037.9,031.0,23.7,0000.0,0003.69,0002.11,0001.59
2023-07-27 09:28:00,SystemResetWarning,0833.1,5.00,000.00,029.4,028.1,000.0,037.9,031.0,23.6,0000.0,0003.59,0002.07,0001.59
2023-07-27 09:29:00,SystemResetWarning,0833.0,5.00,000.00,029.5,028.1,000.0,037.9,031.0,23.4,0000.0,0003.50,0002.04,0001.59
2023-07-27 09:30:00,SystemResetWarning,0833.3,5.00,000.00,029.5,028.2,000.0,037.9,031.1,23.7,0000.0,0003.65,0002.08,0001.59
2023-07-27 09:31:00,SystemResetWarning,0833.1,5.00,000.00,029.5,028.3,000.0,037.9,031.1,23.3,0000.0,0003.79,0002.12,0001.60
2023-07-27 09:32:00,SystemResetWarning,0833.2,5.00,000.00,029.5,028.3,000.0,037.9,031.1,23.5,0000.0,0003.92,0002.16,0001.61
2023-07-27 09:33:00,SystemResetWarning,0833.1,5.00,000.00,029.6,028.3,000.0,038.0,031.2,23.4,0000.0,0003.95,0002.18,0001.62
2023-07-27 09:34:00,SystemResetWarning,0832.9,4.99,000.00,029.6,028.4,000.0,038.0,031.2,23.4,0000.0,0003.81,0002.16,0001.63
2023-07-27 09:35:00,SystemResetWarning,0833.4,4.99,000.00,029.6,028.4,000.0,038.0,031.2,23.2,0000.0,0003.86,0002.19,0001.64
2023-07-27 09:36:00,SystemResetWarning,0833.2,5.00,000.00,029.6,028.5,000.0,038.0,031.3,23.1,0000.0,0003.94,0002.24,0001.65
2023-07-27 09:37:00,SystemResetWarning,0833.4,5.01,000.00,029.7,028.5,000.0,038.0,031.3,23.2,0000.0,0004.03,0002.28,0001.65
2023-07-27 09:38:00,SystemResetWarning,0833.3,5.01,000.00,029.7,028.5,000.0,038.1,031.3,23.2,0000.0,0003.81,0002.30,0001.65
2023-07-27 09:39:00,SystemResetWarning,0833.1,5.01,000.00,029.7,028.6,000.0,038.1,031.3,23.1,0000.0,0003.92,0002.35,0001.64
2023-07-27 09:40:00,SystemResetWarning,0832.9,5.00,000.00,029.8,028.6,000.0,038.1,031.3,22.9,0000.0,0003.96,0002.37,0001.63
2023-07-27 09:41:00,SystemResetWarning,0833.0,4.98,000.00,029.8,028.2,000.0,038.1,031.3,22.6,0000.0,0003.80,0002.32,0001.62
2023-07-27 09:42:00,SystemResetWarning,0832.9,5.00,000.00,029.7,026.2,000.0,038.0,031.1,22.8,0000.0,0004.50,0002.33,0001.62
2023-07-27 09:43:00,SystemResetWarning,0833.0,5.01,000.00,029.6,025.4,000.0,037.9,030.9,22.9,0000.0,0004.36,0002.30,0001.61
2023-07-27 09:44:00,SystemResetWarning,0832.9,5.01,000.00,029.5,025.5,000.0,037.9,030.6,23.0,0000.0,0004.41,0002.30,0001.59
2023-07-27 09:45:00,SystemResetWarning,0833.0,5.00,000.00,029.4,025.8,000.0,037.9,030.6,23.2,0000.0,0004.38,0002.28,0001.58
2023-07-27 09:46:00,SystemResetWarning,0832.9,4.99,000.00,029.4,026.2,000.0,037.9,030.7,23.5,0000.0,0004.40,0002.25,0001.57
2023-07-27 09:47:00,SystemResetWarning,0833.4,4.99,000.00,029.4,026.6,000.0,037.9,030.7,23.4,0000.0,0004.44,0002.20,0001.55
2023-07-27 09:48:00,SystemResetWarning,0833.1,5.01,000.00,029.4,026.9,000.0,037.9,030.8,23.2,0000.0,0004.38,0002.15,0001.54
2023-07-27 09:49:00,SystemResetWarning,0833.0,5.01,000.00,029.4,027.2,000.0,037.9,030.9,23.0,0000.0,0004.86,0002.13,0001.56
2023-07-27 09:50:00,SystemResetWarning,0833.0,5.00,000.00,029.4,027.5,000.0,037.9,030.9,22.8,0000.0,0005.41,0002.09,0001.55
2023-07-27 09:51:00,SystemResetWarning,0833.0,4.99,000.00,029.4,027.6,000.0,037.9,030.9,22.6,0000.0,0005.40,0002.07,0001.54
2023-07-27 09:52:00,SystemResetWarning,0833.0,5.00,000.00,029.4,027.8,000.0,037.9,031.0,22.3,0000.0,0005.40,0002.05,0001.54
2023-07-27 09:53:00,SystemResetWarning,0833.4,5.00,000.00,029.5,027.9,000.0,037.9,031.0,22.5,0000.0,0004.74,0002.03,0001.53
2023-07-27 09:54:00,SystemResetWarning,0833.0,5.00,000.00,029.5,028.1,000.0,037.9,031.0,22.5,0000.0,0004.79,0002.01,0001.53
2023-07-27 09:55:00,SystemResetWarning,0833.1,5.00,000.00,029.5,028.1,000.0,037.9,031.1,22.5,0000.0,0005.29,0002.01,0001.55
2023-07-27 09:56:00,SystemResetWarning,0833.1,5.00,000.00,029.5,028.2,000.0,038.0,031.1,22.6,0000.0,0005.77,0002.02,0001.55
2023-07-27 09:57:00,SystemResetWarning,0833.1,5.00,000.00,029.6,028.3,000.0,038.0,031.2,22.8,0000.0,0005.89,0002.03,0001.55
2023-07-27 09:58:00,SystemResetWarning,0833.1,5.01,000.00,029.6,028.4,000.0,038.0,031.2,23.1,0000.0,0005.77,0002.05,0001.55
2023-07-27 09:59:00,SystemResetWarning,0833.2,4.99,000.00,029.6,028.4,000.0,038.0,031.3,23.1,0000.0,0005.94,0002.13,0001.55
